Farmington, MO

9:28 PM CST on December 11, 2019 (GMT -0600)
Farmington Regional

Weather History for KFAM - October, 2019

Change the Weather History Date:

Tuesday, October 8, 2019

  Actual Average Record
Temperature  
Mean Temperature 56 °F -  
Max Temperature 72 °F 68 °F 87 °F (2007)
Min Temperature 39 °F 46 °F 30 °F (2000)
Degree Days  
Heating Degree Days 10    
Growing Degree Days 6 (Base 50)    
Moisture  
Dew Point 43 °F    
Average Humidity 64    
Maximum Humidity 97    
Minimum Humidity 35    
Precipitation  
Precipitation 0.00 in - - ()
Sea Level Pressure  
Sea Level Pressure 30.19 in    
Wind  
Wind Speed 2 mph (ESE)    
Max Wind Speed 10 mph    
Max Gust Speed -    
Visibility 9 miles    
Events      
Averages and records for this station are not official NWS values.
T = Trace of Precipitation, MM = Missing Value Source: NWS Daily Summary

Daily Weather History Graph

Daily Weather History Graph

Search for Another Location

Airport or City:

Astronomy

Oct. 08, 2019 Rise Set
Actual Time 7:03 AM CDT 6:34 PM CDT
Civil Twilight 6:37 AM CDT 7:00 PM CDT
Nautical Twilight 6:06 AM CDT 7:31 PM CDT
Astronomical Twilight 5:36 AM CDT 8:01 PM CDT
Moon 4:27 PM CDT (10/8) 2:00 AM CDT (10/8)
Length of Visible Light 12h 23m
Length of Day
11h 31m
Waxing Gibbous, 78% of the Moon is Illuminated
Oct 8
Waxing Gibbous
Oct 13
Full
Oct 21
Last Quarter
Oct 27
New
Nov 4
First Quarter

Hourly Weather History & Observations

Time (CDT) Temp. Dew Point Humidity Pressure Visibility Wind Dir Wind Speed Gust Speed Precip Events Conditions
12:56 AM 46.0 °F 44.1 °F 93% 30.24 in 10.0 mi Calm Calm - N/A   Clear
1:56 AM 44.1 °F 43.0 °F 96% 30.24 in 10.0 mi Calm Calm - N/A   Clear
2:56 AM 43.0 °F 42.1 °F 97% 30.23 in 10.0 mi Calm Calm - N/A   Clear
3:56 AM 42.1 °F 41.0 °F 96% 30.23 in 10.0 mi Calm Calm - N/A   Clear
4:56 AM 42.1 °F 41.0 °F 96% 30.23 in 10.0 mi Calm Calm - N/A   Clear
5:56 AM 39.9 °F 39.0 °F 97% 30.25 in 10.0 mi Calm Calm - N/A   Clear
6:56 AM 39.9 °F 37.9 °F 93% 30.26 in 10.0 mi Calm Calm - N/A   Clear
7:56 AM 42.1 °F 41.0 °F 96% 30.25 in 10.0 mi Calm Calm - N/A   Clear
8:56 AM 48.9 °F 44.1 °F 83% 30.27 in 10.0 mi Calm Calm - N/A   Clear
9:56 AM 57.9 °F 46.9 °F 67% 30.27 in 10.0 mi Calm Calm - N/A   Clear
10:56 AM 66.0 °F 45.0 °F 47% 30.26 in 10.0 mi Calm Calm - N/A   Clear
11:56 AM 70.0 °F 41.0 °F 35% 30.24 in 10.0 mi SE 10.4 mph - N/A   Clear
12:56 PM 70.0 °F 41.0 °F 35% 30.21 in 10.0 mi Variable 3.5 mph - N/A   Clear
1:56 PM 71.1 °F 44.1 °F 38% 30.18 in 10.0 mi ESE 9.2 mph - N/A   Clear
2:12 PM 71.6 °F 44.6 °F 38% 30.15 in 0.2 mi Calm Calm - N/A   Haze
2:16 PM 71.6 °F 42.8 °F 35% 30.15 in 0.8 mi ENE 5.8 mph - N/A   Haze
2:21 PM 71.6 °F 42.8 °F 35% 30.15 in 2.0 mi SE 6.9 mph - N/A   Haze
2:28 PM 71.6 °F 42.8 °F 35% 30.15 in 10.0 mi SSE 5.8 mph - N/A   Clear
2:56 PM 71.1 °F 43.0 °F 36% 30.16 in 10.0 mi Variable 3.5 mph - N/A   Clear
3:56 PM 72.0 °F 44.1 °F 37% 30.15 in 10.0 mi Variable 3.5 mph - N/A   Clear
4:15 PM 71.6 °F 42.8 °F 35% 30.12 in 10.0 mi NE 6.9 mph - N/A   Partly Cloudy
4:56 PM 71.1 °F 44.1 °F 38% 30.14 in 10.0 mi ESE 6.9 mph - N/A   Clear
5:56 PM 69.1 °F 45.0 °F 42% 30.14 in 10.0 mi East 5.8 mph - N/A   Clear
6:56 PM 63.0 °F 44.1 °F 50% 30.14 in 10.0 mi East 3.5 mph - N/A   Clear
7:56 PM 57.9 °F 45.0 °F 62% 30.15 in 10.0 mi East 3.5 mph - N/A   Clear
8:56 PM 52.0 °F 45.0 °F 77% 30.16 in 10.0 mi Calm Calm - N/A   Clear
9:56 PM 50.0 °F 45.0 °F 83% 30.15 in 10.0 mi Calm Calm - N/A   Clear
10:56 PM 48.0 °F 45.0 °F 89% 30.15 in 10.0 mi Calm Calm - N/A   Clear
11:56 PM 46.0 °F 45.0 °F 96% 30.14 in 10.0 mi Calm Calm - N/A   Clear